Bainbridge, GA

5:34 AM EDT on July 27, 2017 (GMT -0400)
Decatur County Industrial

Weather History for KBGE - February, 2013

Change the Weather History Date:

Monday, February 25, 2013

  Actual Average (KTLH) Record (KTLH)
Temperature  
Mean Temperature 58 °F -  
Max Temperature 62 °F 68 °F 84 °F (1977)
Min Temperature 53 °F 41 °F 18 °F (1989)
Degree Days  
Heating Degree Days 8    
Growing Degree Days 8 (Base 50)    
Moisture  
Dew Point 57 °F    
Average Humidity 94    
Maximum Humidity 100    
Minimum Humidity 59    
Precipitation  
Precipitation 0.00 in - - ()
Sea Level Pressure  
Sea Level Pressure 29.84 in    
Wind  
Wind Speed 9 mph (East)    
Max Wind Speed 20 mph    
Max Gust Speed 26 mph    
Visibility 7 miles    
Events Rain , Thunderstorm    
Averages and records for this station are not official NWS values.
T = Trace of Precipitation, MM = Missing Value Source: NWS Daily Summary

Daily Weather History Graph

Daily Weather History Graph

Search for Another Location

Airport or City:

Trip Planner

Search our weather history database for the weather conditions in past years. The results will help you decide how hot, cold, wet, or windy it might be!

Date:

Astronomy

Feb. 25, 2013 Rise Set
Actual Time 7:09 AM EST 6:34 PM EST
Civil Twilight 6:44 AM EST 6:58 PM EST
Nautical Twilight 6:16 AM EST 7:26 PM EST
Astronomical Twilight 5:48 AM EST 7:54 PM EST
Moon 6:42 PM EST (2/25) 6:41 AM EST (2/25)
Length of Visible Light 12h 13m
Length of Day
11h 25m
Full, 100% of the Moon is Illuminated
Feb 25
Full
Feb 25
Full
Mar 4
Last Quarter
Mar 11
New
Mar 19
First Quarter

Hourly Weather History & Observations

Time (EST) Temp. Dew Point Humidity Pressure Visibility Wind Dir Wind Speed Gust Speed Precip Events Conditions
12:15 AM 62.6 °F 48.2 °F 59% 29.92 in 10.0 mi ESE 5.8 mph - N/A   Overcast
12:35 AM 62.6 °F 51.8 °F 68% 29.92 in 10.0 mi ESE 4.6 mph - N/A Rain , Thunderstorm Light Thunderstorms and Rain
12:55 AM 59.0 °F 53.6 °F 82% 29.93 in 4.0 mi East 5.8 mph - N/A Rain , Thunderstorm Thunderstorms and Rain
1:15 AM 57.2 °F 53.6 °F 88% 29.91 in 5.0 mi ENE 11.5 mph - N/A Rain , Thunderstorm Heavy Thunderstorms and Rain
1:35 AM 57.2 °F 53.6 °F 88% 29.90 in 5.0 mi East 8.1 mph - N/A Rain , Thunderstorm Heavy Thunderstorms and Rain
1:55 AM 57.2 °F 53.6 °F 88% 29.94 in 7.0 mi North 9.2 mph - N/A Rain , Thunderstorm Rain
2:15 AM 57.2 °F 53.6 °F 88% 29.94 in 4.0 mi NNE 5.8 mph 9.2 mph N/A Rain , Thunderstorm Heavy Thunderstorms and Rain
2:35 AM 53.6 °F 51.8 °F 94% 29.92 in 5.0 mi NNE 10.4 mph - N/A Rain , Thunderstorm Thunderstorms and Rain
3:15 AM 53.6 °F 51.8 °F 94% 29.90 in 7.0 mi ENE 9.2 mph - N/A Rain , Thunderstorm Thunderstorms and Rain
3:35 AM 53.6 °F 53.6 °F 100% 29.89 in 4.0 mi East 3.5 mph - N/A Rain , Thunderstorm Heavy Thunderstorms and Rain
3:55 AM 53.6 °F 53.6 °F 100% 29.87 in 1.2 mi ENE 12.7 mph - N/A Rain , Thunderstorm Heavy Thunderstorms and Rain
4:15 AM 53.6 °F 53.6 °F 100% 29.86 in 4.0 mi NE 16.1 mph - N/A Rain , Thunderstorm Thunderstorms and Rain
4:35 AM 53.6 °F 53.6 °F 100% 29.88 in 2.5 mi ESE 5.8 mph - N/A Rain Heavy Rain
4:55 AM 55.4 °F 55.4 °F 100% 29.87 in 7.0 mi East 10.4 mph - N/A Rain , Thunderstorm Light Thunderstorms and Rain
5:15 AM 57.2 °F 55.4 °F 94% 29.87 in 5.0 mi ENE 8.1 mph - N/A Rain , Thunderstorm Thunderstorms and Rain
5:35 AM 57.2 °F 55.4 °F 94% 29.88 in 5.0 mi East 3.5 mph - N/A Rain Heavy Rain
5:55 AM 57.2 °F 55.4 °F 94% 29.87 in 5.0 mi East 8.1 mph - N/A Rain , Thunderstorm Rain
6:15 AM 57.2 °F 55.4 °F 94% 29.86 in 5.0 mi East 9.2 mph - N/A Rain Rain
6:35 AM 57.2 °F 55.4 °F 94% 29.88 in 10.0 mi ESE 5.8 mph - N/A Rain , Thunderstorm Light Thunderstorms and Rain
6:55 AM 57.2 °F 55.4 °F 94% 29.87 in 7.0 mi East 4.6 mph - N/A Rain , Thunderstorm Rain
7:15 AM 57.2 °F 57.2 °F 100% 29.86 in 7.0 mi East 6.9 mph - N/A Rain , Thunderstorm Light Thunderstorms and Rain
7:35 AM 59.0 °F 57.2 °F 94% 29.87 in 5.0 mi NE 8.1 mph - N/A Rain , Thunderstorm Heavy Thunderstorms and Rain
7:55 AM 59.0 °F 57.2 °F 94% 29.89 in 5.0 mi East 5.8 mph - N/A Rain Rain
8:15 AM 59.0 °F 59.0 °F 100% 29.92 in 2.0 mi Calm Calm - N/A Rain Heavy Rain
8:35 AM 59.0 °F 59.0 °F 100% 29.90 in 5.0 mi East 8.1 mph - N/A Rain Heavy Rain
8:55 AM 59.0 °F 59.0 °F 100% 29.89 in 7.0 mi East 10.4 mph - N/A Rain , Thunderstorm Light Thunderstorms and Rain
9:15 AM 59.0 °F 59.0 °F 100% 29.88 in 7.0 mi ENE 12.7 mph - N/A Rain Light Rain
9:35 AM 59.0 °F 59.0 °F 100% 29.90 in 10.0 mi NNW 9.2 mph - N/A Rain Light Rain
9:55 AM 57.2 °F 55.4 °F 94% 29.89 in 5.0 mi NE 16.1 mph - N/A Rain , Thunderstorm Rain
10:15 AM 57.2 °F 55.4 °F 94% 29.94 in 4.0 mi ENE 11.5 mph - N/A Rain Heavy Rain
10:35 AM 57.2 °F 55.4 °F 94% 29.92 in 5.0 mi NNE 15.0 mph - N/A Rain Rain
10:55 AM 57.2 °F 55.4 °F 94% 29.90 in 4.0 mi NE 13.8 mph - N/A Rain Rain
11:15 AM 57.2 °F 55.4 °F 94% 29.94 in 2.5 mi ENE 9.2 mph - N/A Rain , Thunderstorm Heavy Thunderstorms and Rain
11:35 AM 57.2 °F 55.4 °F 94% 29.93 in 4.0 mi NE 11.5 mph - N/A Rain , Thunderstorm Rain
12:15 PM 57.2 °F 55.4 °F 94% 29.92 in 3.0 mi ENE 17.3 mph - N/A Rain Rain
12:35 PM 57.2 °F 55.4 °F 94% 29.92 in 4.0 mi East 11.5 mph - N/A Rain Rain
12:55 PM 57.2 °F 55.4 °F 94% 29.89 in 7.0 mi ENE 15.0 mph - N/A Rain Light Rain
1:15 PM 57.2 °F 55.4 °F 94% 29.88 in 10.0 mi East 11.5 mph 18.4 mph N/A Rain Light Rain
1:35 PM 59.0 °F 57.2 °F 94% 29.88 in 10.0 mi ENE 10.4 mph 13.8 mph N/A Rain Light Rain
1:55 PM 59.0 °F 59.0 °F 100% 29.85 in 10.0 mi East 17.3 mph - N/A Rain Light Rain
2:15 PM 59.0 °F 59.0 °F 100% 29.85 in 10.0 mi East 13.8 mph - N/A Rain Light Rain
2:35 PM 59.0 °F 59.0 °F 100% 29.84 in 10.0 mi East 11.5 mph 21.9 mph N/A Rain Light Rain
2:55 PM 60.8 °F 59.0 °F 94% 29.82 in 7.0 mi ESE 16.1 mph - N/A Rain Light Rain
3:15 PM 60.8 °F 59.0 °F 94% 29.79 in 10.0 mi East 16.1 mph 26.5 mph N/A   Scattered Clouds
3:35 PM 62.6 °F 59.0 °F 88% 29.79 in 10.0 mi ESE 13.8 mph 24.2 mph N/A   Clear
3:55 PM 62.6 °F 59.0 °F 88% 29.77 in 10.0 mi ESE 18.4 mph 23.0 mph N/A   Clear
4:15 PM 62.6 °F 59.0 °F 88% 29.77 in 10.0 mi ESE 19.6 mph 25.3 mph N/A   Clear
4:35 PM 62.6 °F 59.0 °F 88% 29.76 in 10.0 mi ESE 15.0 mph - N/A   Clear
4:55 PM 62.6 °F 59.0 °F 88% 29.77 in 10.0 mi ESE 13.8 mph 23.0 mph N/A   Scattered Clouds
5:15 PM 62.6 °F 59.0 °F 88% 29.76 in 10.0 mi ESE 9.2 mph - N/A   Scattered Clouds
5:35 PM 62.6 °F 59.0 °F 88% 29.75 in 10.0 mi ESE 12.7 mph - N/A   Mostly Cloudy
5:55 PM 62.6 °F 59.0 °F 88% 29.77 in 10.0 mi ESE 12.7 mph 18.4 mph N/A   Overcast
6:15 PM 62.6 °F 59.0 °F 88% 29.78 in 10.0 mi ESE 8.1 mph - N/A   Overcast
6:35 PM 60.8 °F 59.0 °F 94% 29.78 in 10.0 mi East 6.9 mph - N/A   Overcast
6:55 PM 60.8 °F 57.2 °F 88% 29.79 in 10.0 mi ESE 8.1 mph - N/A Rain Light Rain
7:15 PM 59.0 °F 57.2 °F 94% 29.78 in 10.0 mi East 11.5 mph - N/A   Overcast
7:35 PM 59.0 °F 57.2 °F 94% 29.80 in 10.0 mi East 6.9 mph - N/A   Light Drizzle
7:55 PM 59.0 °F 57.2 °F 94% 29.78 in 10.0 mi East 9.2 mph - N/A   Overcast
8:15 PM 59.0 °F 59.0 °F 100% 29.79 in 10.0 mi East 9.2 mph - N/A Rain Light Rain
8:35 PM 59.0 °F 59.0 °F 100% 29.77 in 10.0 mi East 11.5 mph - N/A Rain Light Rain
8:55 PM 59.0 °F 59.0 °F 100% 29.77 in 10.0 mi East 11.5 mph - N/A   Overcast
9:15 PM 59.0 °F 59.0 °F 100% 29.75 in 10.0 mi East 9.2 mph - N/A   Overcast
9:35 PM 59.0 °F 59.0 °F 100% 29.77 in 10.0 mi ESE 9.2 mph - N/A Rain Light Rain
9:55 PM 59.0 °F 59.0 °F 100% 29.76 in 7.0 mi ESE 13.8 mph - N/A Rain Rain
10:15 PM 59.0 °F 59.0 °F 100% 29.76 in 4.0 mi ESE 11.5 mph 18.4 mph N/A Rain Rain
10:35 PM 59.0 °F 59.0 °F 100% 29.75 in 10.0 mi ESE 10.4 mph - N/A Rain Light Rain
10:55 PM 59.0 °F 59.0 °F 100% 29.76 in 7.0 mi East 6.9 mph - N/A Rain Rain
11:15 PM 59.0 °F 59.0 °F 100% 29.75 in 5.0 mi ESE 9.2 mph - N/A Rain Light Rain
11:35 PM 59.0 °F 59.0 °F 100% 29.74 in 7.0 mi East 8.1 mph - N/A Rain , Thunderstorm Rain
11:55 PM 59.0 °F 59.0 °F 100% 29.73 in 4.0 mi East 6.9 mph - N/A Rain Heavy Rain